Omak, WA

2:34 PM PDT on March 30, 2017 (GMT -0700)
Omak

Weather History for KOMK - July, 2013

Change the Weather History Date:

Tuesday, July 23, 2013

  Actual Average Record
Temperature  
Mean Temperature 80 °F 74 °F  
Max Temperature 98 °F 90 °F 107 °F (2006)
Min Temperature 62 °F 59 °F 44 °F (1964)
Degree Days  
Heating Degree Days 0 0  
Month to date heating degree days 0 11  
Since 1 June heating degree days 67 80  
Since 1 July heating degree days 0 11  
Cooling Degree Days 15 10  
Month to date cooling degree days 245 173  
Year to date cooling degree days 333 280  
Since 1 June cooling degree days 310 257  
Growing Degree Days 31 (Base 50)    
Moisture  
Dew Point 41 °F    
Average Humidity 26    
Maximum Humidity 44    
Minimum Humidity 8    
Precipitation  
Precipitation 0.00 in 0.02 in 2.04 in (1992)
Month to date precipitation 0.26 0.63  
Year to date precipitation 6.10 8.61  
Sea Level Pressure  
Sea Level Pressure 29.89 in    
Wind  
Wind Speed 7 mph (WNW)    
Max Wind Speed 16 mph    
Max Gust Speed 20 mph    
Visibility 10 miles    
Events      
T = Trace of Precipitation, MM = Missing Value Source: NWS Daily Summary

Daily Weather History Graph

Daily Weather History Graph

Search for Another Location

Airport or City:

Trip Planner

Search our weather history database for the weather conditions in past years. The results will help you decide how hot, cold, wet, or windy it might be!

Date:

Astronomy

Jul. 23, 2013 Rise Set
Actual Time 5:21 AM PDT 8:46 PM PDT
Civil Twilight 4:43 AM PDT 9:24 PM PDT
Nautical Twilight 3:52 AM PDT 10:15 PM PDT
Astronomical Twilight 2:44 AM PDT 11:22 PM PDT
Moon 9:03 PM PDT (7/23) 6:47 AM PDT (7/23)
Length of Visible Light 16h 41m
Length of Day
15h 24m
Full, 98% of the Moon is Illuminated
Jul 23
Full
Jul 29
Last Quarter
Aug 6
New
Aug 14
First Quarter
Aug 20
Full

Hourly Weather History & Observations

Time (PDT) Temp. Dew Point Humidity Pressure Visibility Wind Dir Wind Speed Gust Speed Precip Events Conditions
12:53 AM 69.1 °F 46.0 °F 44% 29.86 in 10.0 mi NW 11.5 mph - N/A   Clear
1:53 AM 69.1 °F 43.0 °F 39% 29.88 in 10.0 mi Variable 4.6 mph - N/A   Clear
2:53 AM 72.0 °F 42.1 °F 34% 29.88 in 10.0 mi NW 10.4 mph - N/A   Clear
3:53 AM 66.9 °F 43.0 °F 42% 29.90 in 10.0 mi NW 6.9 mph - N/A   Clear
4:53 AM 68.0 °F 43.0 °F 40% 29.92 in 10.0 mi NNW 9.2 mph - N/A   Clear
5:53 AM 64.0 °F 43.0 °F 46% 29.94 in 10.0 mi NW 8.1 mph - N/A   Clear
6:53 AM 71.1 °F 45.0 °F 39% 29.95 in 10.0 mi NW 6.9 mph - N/A   Clear
7:53 AM 75.9 °F 45.0 °F 33% 29.95 in 10.0 mi NNW 11.5 mph - N/A   Clear
8:53 AM 79.0 °F 45.0 °F 30% 29.96 in 10.0 mi North 10.4 mph - N/A   Clear
9:53 AM 82.9 °F 44.1 °F 25% 29.96 in 10.0 mi North 12.7 mph - N/A   Clear
10:53 AM 88.0 °F 44.1 °F 22% 29.94 in 10.0 mi North 10.4 mph 19.6 mph N/A   Clear
11:53 AM 91.9 °F 43.0 °F 18% 29.93 in 10.0 mi North 10.4 mph - N/A   Clear
12:53 PM 91.9 °F 42.1 °F 18% 29.91 in 10.0 mi Variable 3.5 mph - N/A   Clear
1:53 PM 93.9 °F 37.0 °F 14% 29.90 in 10.0 mi SSW 6.9 mph - N/A   Clear
2:53 PM 95.0 °F 37.9 °F 14% 29.88 in 10.0 mi WNW 3.5 mph - N/A   Clear
3:53 PM 97.0 °F 39.0 °F 13% 29.86 in 10.0 mi Variable 4.6 mph - N/A   Clear
4:53 PM 98.1 °F 32.0 °F 10% 29.84 in 10.0 mi SW 9.2 mph - N/A   Clear
5:53 PM 98.1 °F 28.9 °F 9% 29.82 in 10.0 mi SSW 6.9 mph - N/A   Clear
6:53 PM 96.1 °F 34.0 °F 11% 29.81 in 10.0 mi SSW 3.5 mph - N/A   Clear
7:53 PM 93.9 °F 36.0 °F 13% 29.81 in 10.0 mi SSE 3.5 mph - N/A   Clear
8:53 PM 80.1 °F 43.0 °F 27% 29.82 in 10.0 mi SW 4.6 mph - N/A   Clear
9:53 PM 78.1 °F 39.0 °F 25% 29.83 in 10.0 mi South 5.8 mph - N/A   Clear
10:53 PM 75.0 °F 41.0 °F 29% 29.85 in 10.0 mi West 6.9 mph - N/A   Clear
11:53 PM 69.1 °F 41.0 °F 36% 29.86 in 10.0 mi NW 6.9 mph - N/A   Clear